owner,sensor,date,latitude,longitude,vertical_datum,sea_water_practical_salinity,qcFlag 
COMPS,ioos:station:USF.COMPS:NFB:1,2008-12-01T00:00:00Z,25.0840,-81.0960,1.0,31.368,1111122 
COMPS,ioos:station:USF.COMPS:NFB:1,2008-12-01T00:06:00Z,25.0840,-81.0960,1.0,31.368,1111122 
COMPS,ioos:station:USF.COMPS:NFB:1,2008-12-01T00:12:00Z,25.0840,-81.0960,1.0,31.281,1111122 
COMPS,ioos:station:USF.COMPS:NFB:1,2008-12-01T00:18:00Z,25.0840,-81.0960,1.0,31.281,1111122 
COMPS,ioos:station:USF.COMPS:NFB:1,2008-12-01T00:24:00Z,25.0840,-81.0960,1.0,31.281,1111122 
COMPS,ioos:station:USF.COMPS:NFB:1,2008-12-01T00:30:00Z,25.0840,-81.0960,1.0,31.281,1111122 
COMPS,ioos:station:USF.COMPS:NFB:1,2008-12-01T00:36:00Z,25.0840,-81.0960,1.0,31.281,1111122 
COMPS,ioos:station:USF.COMPS:NFB:1,2008-12-01T00:42:00Z,25.0840,-81.0960,1.0,31.281,1111122 
COMPS,ioos:station:USF.COMPS:NFB:1,2008-12-01T00:48:00Z,25.0840,-81.0960,1.0,31.274,1111122 
COMPS,ioos:station:USF.COMPS:NFB:1,2008-12-01T00:54:00Z,25.0840,-81.0960,1.0,31.195,1111122 
COMPS,ioos:station:USF.COMPS:NFB:1,2008-12-01T01:00:00Z,25.0840,-81.0960,1.0,31.195,1111122 
COMPS,ioos:station:USF.COMPS:NFB:1,2008-12-01T01:06:00Z,25.0840,-81.0960,1.0,31.195,1111122 
COMPS,ioos:station:USF.COMPS:NFB:1,2008-12-01T01:12:00Z,25.0840,-81.0960,1.0,31.195,1111122 
COMPS,ioos:station:USF.COMPS:NFB:1,2008-12-01T01:18:00Z,25.0840,-81.0960,1.0,31.188,1111122 
COMPS,ioos:station:USF.COMPS:NFB:1,2008-12-01T01:24:00Z,25.0840,-81.0960,1.0,31.267,1111122 
COMPS,ioos:station:USF.COMPS:NFB:1,2008-12-01T01:30:00Z,25.0840,-81.0960,1.0,31.267,1111122 
COMPS,ioos:station:USF.COMPS:NFB:1,2008-12-01T01:36:00Z,25.0840,-81.0960,1.0,31.267,1111122 
COMPS,ioos:station:USF.COMPS:NFB:1,2008-12-01T01:42:00Z,25.0840,-81.0960,1.0,31.259,1111122 
COMPS,ioos:station:USF.COMPS:NFB:1,2008-12-01T01:48:00Z,25.0840,-81.0960,1.0,31.259,1111122 
COMPS,ioos:station:USF.COMPS:NFB:1,2008-12-01T01:54:00Z,25.0840,-81.0960,1.0,31.252,1111122 
COMPS,ioos:station:USF.COMPS:NFB:1,2008-12-01T02:00:00Z,25.0840,-81.0960,1.0,31.245,1111122 
COMPS,ioos:station:USF.COMPS:NFB:1,2008-12-01T02:06:00Z,25.0840,-81.0960,1.0,31.245,1111122 
COMPS,ioos:station:USF.COMPS:NFB:1,2008-12-01T02:12:00Z,25.0840,-81.0960,1.0,31.245,1111122 
COMPS,ioos:station:USF.COMPS:NFB:1,2008-12-01T02:18:00Z,25.0840,-81.0960,1.0,31.245,1111122 
COMPS,ioos:station:USF.COMPS:NFB:1,2008-12-01T02:24:00Z,25.0840,-81.0960,1.0,31.245,1111122 
COMPS,ioos:station:USF.COMPS:NFB:1,2008-12-01T02:30:00Z,25.0840,-81.0960,1.0,31.245,1111122 
COMPS,ioos:station:USF.COMPS:NFB:1,2008-12-01T02:36:00Z,25.0840,-81.0960,1.0,31.237,1111122 
COMPS,ioos:station:USF.COMPS:NFB:1,2008-12-01T02:42:00Z,25.0840,-81.0960,1.0,31.316,1111122 
COMPS,ioos:station:USF.COMPS:NFB:1,2008-12-01T02:48:00Z,25.0840,-81.0960,1.0,31.309,1111122 
COMPS,ioos:station:USF.COMPS:NFB:1,2008-12-01T02:54:00Z,25.0840,-81.0960,1.0,31.373,1111122 
COMPS,ioos:station:USF.COMPS:NFB:1,2008-12-01T03:00:00Z,25.0840,-81.0960,1.0,31.437,1111122 
COMPS,ioos:station:USF.COMPS:NFB:1,2008-12-01T03:06:00Z,25.0840,-81.0960,1.0,31.501,1111122 
COMPS,ioos:station:USF.COMPS:NFB:1,2008-12-01T03:12:00Z,25.0840,-81.0960,1.0,31.487,1111122 
COMPS,ioos:station:USF.COMPS:NFB:1,2008-12-01T03:18:00Z,25.0840,-81.0960,1.0,31.551,1111122 
COMPS,ioos:station:USF.COMPS:NFB:1,2008-12-01T03:24:00Z,25.0840,-81.0960,1.0,31.6,1111122 
COMPS,ioos:station:USF.COMPS:NFB:1,2008-12-01T03:30:00Z,25.0840,-81.0960,1.0,31.72,1111122 
COMPS,ioos:station:USF.COMPS:NFB:1,2008-12-01T03:36:00Z,25.0840,-81.0960,1.0,31.784,1111122 
COMPS,ioos:station:USF.COMPS:NFB:1,2008-12-01T03:42:00Z,25.0840,-81.0960,1.0,31.833,1111122 
COMPS,ioos:station:USF.COMPS:NFB:1,2008-12-01T03:48:00Z,25.0840,-81.0960,1.0,31.826,1111122 
COMPS,ioos:station:USF.COMPS:NFB:1,2008-12-01T03:54:00Z,25.0840,-81.0960,1.0,31.833,1111122 
COMPS,ioos:station:USF.COMPS:NFB:1,2008-12-01T04:00:00Z,25.0840,-81.0960,1.0,31.833,1111122 
COMPS,ioos:station:USF.COMPS:NFB:1,2008-12-01T04:06:00Z,25.0840,-81.0960,1.0,31.762,1111122 
COMPS,ioos:station:USF.COMPS:NFB:1,2008-12-01T04:12:00Z,25.0840,-81.0960,1.0,31.762,1111122 
COMPS,ioos:station:USF.COMPS:NFB:1,2008-12-01T04:18:00Z,25.0840,-81.0960,1.0,31.769,1111122 
COMPS,ioos:station:USF.COMPS:NFB:1,2008-12-01T04:24:00Z,25.0840,-81.0960,1.0,31.777,1111122 
COMPS,ioos:station:USF.COMPS:NFB:1,2008-12-01T04:30:00Z,25.0840,-81.0960,1.0,31.713,1111122 
COMPS,ioos:station:USF.COMPS:NFB:1,2008-12-01T04:36:00Z,25.0840,-81.0960,1.0,31.72,1111122 
COMPS,ioos:station:USF.COMPS:NFB:1,2008-12-01T04:42:00Z,25.0840,-81.0960,1.0,31.72,1111122 
COMPS,ioos:station:USF.COMPS:NFB:1,2008-12-01T04:48:00Z,25.0840,-81.0960,1.0,31.735,1111122 
COMPS,ioos:station:USF.COMPS:NFB:1,2008-12-01T04:54:00Z,25.0840,-81.0960,1.0,31.664,1111122 
COMPS,ioos:station:USF.COMPS:NFB:1,2008-12-01T05:00:00Z,25.0840,-81.0960,1.0,31.671,1111122 
COMPS,ioos:station:USF.COMPS:NFB:1,2008-12-01T05:06:00Z,25.0840,-81.0960,1.0,31.679,1111122 
COMPS,ioos:station:USF.COMPS:NFB:1,2008-12-01T05:12:00Z,25.0840,-81.0960,1.0,31.686,1111122 
COMPS,ioos:station:USF.COMPS:NFB:1,2008-12-01T05:18:00Z,25.0840,-81.0960,1.0,31.686,1111122 
COMPS,ioos:station:USF.COMPS:NFB:1,2008-12-01T05:24:00Z,25.0840,-81.0960,1.0,31.693,1111122 
COMPS,ioos:station:USF.COMPS:NFB:1,2008-12-01T05:30:00Z,25.0840,-81.0960,1.0,31.629,1111122 
COMPS,ioos:station:USF.COMPS:NFB:1,2008-12-01T05:36:00Z,25.0840,-81.0960,1.0,31.531,1111122 
COMPS,ioos:station:USF.COMPS:NFB:1,2008-12-01T05:42:00Z,25.0840,-81.0960,1.0,31.496,1111122 
COMPS,ioos:station:USF.COMPS:NFB:1,2008-12-01T05:48:00Z,25.0840,-81.0960,1.0,31.496,1111122 
COMPS,ioos:station:USF.COMPS:NFB:1,2008-12-01T05:54:00Z,25.0840,-81.0960,1.0,31.424,1111122 
COMPS,ioos:station:USF.COMPS:NFB:1,2008-12-01T06:00:00Z,25.0840,-81.0960,1.0,31.432,1111122 
COMPS,ioos:station:USF.COMPS:NFB:1,2008-12-01T06:06:00Z,25.0840,-81.0960,1.0,31.353,1111122 
COMPS,ioos:station:USF.COMPS:NFB:1,2008-12-01T06:12:00Z,25.0840,-81.0960,1.0,31.424,1111122 
COMPS,ioos:station:USF.COMPS:NFB:1,2008-12-01T06:18:00Z,25.0840,-81.0960,1.0,31.382,1111122 
COMPS,ioos:station:USF.COMPS:NFB:1,2008-12-01T06:24:00Z,25.0840,-81.0960,1.0,31.397,1111122 
COMPS,ioos:station:USF.COMPS:NFB:1,2008-12-01T06:30:00Z,25.0840,-81.0960,1.0,31.404,1111122 
COMPS,ioos:station:USF.COMPS:NFB:1,2008-12-01T06:36:00Z,25.0840,-81.0960,1.0,31.412,1111122 
COMPS,ioos:station:USF.COMPS:NFB:1,2008-12-01T06:42:00Z,25.0840,-81.0960,1.0,31.412,1111122 
COMPS,ioos:station:USF.COMPS:NFB:1,2008-12-01T06:48:00Z,25.0840,-81.0960,1.0,31.412,1111122 
COMPS,ioos:station:USF.COMPS:NFB:1,2008-12-01T06:54:00Z,25.0840,-81.0960,1.0,31.412,1111122 
COMPS,ioos:station:USF.COMPS:NFB:1,2008-12-01T07:00:00Z,25.0840,-81.0960,1.0,31.412,1111122 
COMPS,ioos:station:USF.COMPS:NFB:1,2008-12-01T07:06:00Z,25.0840,-81.0960,1.0,31.412,1111122 
COMPS,ioos:station:USF.COMPS:NFB:1,2008-12-01T07:12:00Z,25.0840,-81.0960,1.0,31.419,1111122 
COMPS,ioos:station:USF.COMPS:NFB:1,2008-12-01T07:18:00Z,25.0840,-81.0960,1.0,31.419,1111122 
COMPS,ioos:station:USF.COMPS:NFB:1,2008-12-01T07:24:00Z,25.0840,-81.0960,1.0,31.426,1111122 
COMPS,ioos:station:USF.COMPS:NFB:1,2008-12-01T07:30:00Z,25.0840,-81.0960,1.0,31.426,1111122 
COMPS,ioos:station:USF.COMPS:NFB:1,2008-12-01T07:36:00Z,25.0840,-81.0960,1.0,31.513,1111122 
COMPS,ioos:station:USF.COMPS:NFB:1,2008-12-01T07:42:00Z,25.0840,-81.0960,1.0,31.599,1111122 
COMPS,ioos:station:USF.COMPS:NFB:1,2008-12-01T07:48:00Z,25.0840,-81.0960,1.0,31.592,1111122 
COMPS,ioos:station:USF.COMPS:NFB:1,2008-12-01T07:54:00Z,25.0840,-81.0960,1.0,31.592,1111122 
COMPS,ioos:station:USF.COMPS:NFB:1,2008-12-01T08:00:00Z,25.0840,-81.0960,1.0,31.592,1111122 
COMPS,ioos:station:USF.COMPS:NFB:1,2008-12-01T08:06:00Z,25.0840,-81.0960,1.0,31.599,1111122 
COMPS,ioos:station:USF.COMPS:NFB:1,2008-12-01T08:12:00Z,25.0840,-81.0960,1.0,31.599,1111122 
COMPS,ioos:station:USF.COMPS:NFB:1,2008-12-01T08:18:00Z,25.0840,-81.0960,1.0,31.599,1111122 
COMPS,ioos:station:USF.COMPS:NFB:1,2008-12-01T08:24:00Z,25.0840,-81.0960,1.0,31.693,1111122 
COMPS,ioos:station:USF.COMPS:NFB:1,2008-12-01T08:30:00Z,25.0840,-81.0960,1.0,31.686,1111122 
COMPS,ioos:station:USF.COMPS:NFB:1,2008-12-01T08:36:00Z,25.0840,-81.0960,1.0,31.773,1111122 
COMPS,ioos:station:USF.COMPS:NFB:1,2008-12-01T08:42:00Z,25.0840,-81.0960,1.0,31.773,1111122 
COMPS,ioos:station:USF.COMPS:NFB:1,2008-12-01T08:48:00Z,25.0840,-81.0960,1.0,31.78,1111122 
COMPS,ioos:station:USF.COMPS:NFB:1,2008-12-01T08:54:00Z,25.0840,-81.0960,1.0,31.773,1111122 
COMPS,ioos:station:USF.COMPS:NFB:1,2008-12-01T09:00:00Z,25.0840,-81.0960,1.0,31.773,1111122 
COMPS,ioos:station:USF.COMPS:NFB:1,2008-12-01T09:06:00Z,25.0840,-81.0960,1.0,31.773,1111122 
COMPS,ioos:station:USF.COMPS:NFB:1,2008-12-01T09:12:00Z,25.0840,-81.0960,1.0,31.773,1111122 
COMPS,ioos:station:USF.COMPS:NFB:1,2008-12-01T09:18:00Z,25.0840,-81.0960,1.0,31.701,1111122 
COMPS,ioos:station:USF.COMPS:NFB:1,2008-12-01T09:24:00Z,25.0840,-81.0960,1.0,31.708,1111122 
COMPS,ioos:station:USF.COMPS:NFB:1,2008-12-01T09:30:00Z,25.0840,-81.0960,1.0,31.708,1111122 
COMPS,ioos:station:USF.COMPS:NFB:1,2008-12-01T09:36:00Z,25.0840,-81.0960,1.0,31.708,1111122 
COMPS,ioos:station:USF.COMPS:NFB:1,2008-12-01T09:42:00Z,25.0840,-81.0960,1.0,31.708,1111122 
COMPS,ioos:station:USF.COMPS:NFB:1,2008-12-01T09:48:00Z,25.0840,-81.0960,1.0,31.542,1111122 
COMPS,ioos:station:USF.COMPS:NFB:1,2008-12-01T09:54:00Z,25.0840,-81.0960,1.0,31.535,1111122 
COMPS,ioos:station:USF.COMPS:NFB:1,2008-12-01T10:00:00Z,25.0840,-81.0960,1.0,31.456,1111122 
COMPS,ioos:station:USF.COMPS:NFB:1,2008-12-01T10:06:00Z,25.0840,-81.0960,1.0,31.463,1111122 
COMPS,ioos:station:USF.COMPS:NFB:1,2008-12-01T10:12:00Z,25.0840,-81.0960,1.0,31.384,1111122 
COMPS,ioos:station:USF.COMPS:NFB:1,2008-12-01T10:18:00Z,25.0840,-81.0960,1.0,31.399,1111122 
COMPS,ioos:station:USF.COMPS:NFB:1,2008-12-01T10:24:00Z,25.0840,-81.0960,1.0,31.391,1111122 
COMPS,ioos:station:USF.COMPS:NFB:1,2008-12-01T10:30:00Z,25.0840,-81.0960,1.0,31.312,1111122 
COMPS,ioos:station:USF.COMPS:NFB:1,2008-12-01T10:36:00Z,25.0840,-81.0960,1.0,31.312,1111122 
COMPS,ioos:station:USF.COMPS:NFB:1,2008-12-01T10:42:00Z,25.0840,-81.0960,1.0,31.233,1111122 
COMPS,ioos:station:USF.COMPS:NFB:1,2008-12-01T10:48:00Z,25.0840,-81.0960,1.0,31.233,1111122 
COMPS,ioos:station:USF.COMPS:NFB:1,2008-12-01T10:54:00Z,25.0840,-81.0960,1.0,31.154,1111122 
COMPS,ioos:station:USF.COMPS:NFB:1,2008-12-01T11:00:00Z,25.0840,-81.0960,1.0,31.147,1111122 
COMPS,ioos:station:USF.COMPS:NFB:1,2008-12-01T11:06:00Z,25.0840,-81.0960,1.0,31.06,1111122 
COMPS,ioos:station:USF.COMPS:NFB:1,2008-12-01T11:12:00Z,25.0840,-81.0960,1.0,31.06,1111122 
COMPS,ioos:station:USF.COMPS:NFB:1,2008-12-01T11:18:00Z,25.0840,-81.0960,1.0,31.06,1111122 
COMPS,ioos:station:USF.COMPS:NFB:1,2008-12-01T11:24:00Z,25.0840,-81.0960,1.0,30.974,1111122 
COMPS,ioos:station:USF.COMPS:NFB:1,2008-12-01T11:30:00Z,25.0840,-81.0960,1.0,30.974,1111122 
COMPS,ioos:station:USF.COMPS:NFB:1,2008-12-01T11:36:00Z,25.0840,-81.0960,1.0,30.967,1111122 
COMPS,ioos:station:USF.COMPS:NFB:1,2008-12-01T11:42:00Z,25.0840,-81.0960,1.0,30.888,1111122 
COMPS,ioos:station:USF.COMPS:NFB:1,2008-12-01T11:48:00Z,25.0840,-81.0960,1.0,30.881,1111122 
COMPS,ioos:station:USF.COMPS:NFB:1,2008-12-01T11:54:00Z,25.0840,-81.0960,1.0,30.96,1111122 
COMPS,ioos:station:USF.COMPS:NFB:1,2008-12-01T14:00:00Z,25.0840,-81.0960,1.0,31.711,1111122 
COMPS,ioos:station:USF.COMPS:NFB:1,2008-12-01T14:06:00Z,25.0840,-81.0960,1.0,31.76,1111122 
COMPS,ioos:station:USF.COMPS:NFB:1,2008-12-01T14:12:00Z,25.0840,-81.0960,1.0,31.738,1111122 
COMPS,ioos:station:USF.COMPS:NFB:1,2008-12-01T14:18:00Z,25.0840,-81.0960,1.0,31.851,1111122 
COMPS,ioos:station:USF.COMPS:NFB:1,2008-12-01T14:24:00Z,25.0840,-81.0960,1.0,31.878,1111122 
COMPS,ioos:station:USF.COMPS:NFB:1,2008-12-01T14:30:00Z,25.0840,-81.0960,1.0,31.968,1111122 
COMPS,ioos:station:USF.COMPS:NFB:1,2008-12-01T14:36:00Z,25.0840,-81.0960,1.0,32.051,1111122 
COMPS,ioos:station:USF.COMPS:NFB:1,2008-12-01T14:42:00Z,25.0840,-81.0960,1.0,32.155,1111122 
COMPS,ioos:station:USF.COMPS:NFB:1,2008-12-01T14:48:00Z,25.0840,-81.0960,1.0,32.196,1111122 
COMPS,ioos:station:USF.COMPS:NFB:1,2008-12-01T14:54:00Z,25.0840,-81.0960,1.0,32.166,1111122 
COMPS,ioos:station:USF.COMPS:NFB:1,2008-12-01T15:00:00Z,25.0840,-81.0960,1.0,32.2,1111122 
COMPS,ioos:station:USF.COMPS:NFB:1,2008-12-01T15:06:00Z,25.0840,-81.0960,1.0,32.274,1111122 
COMPS,ioos:station:USF.COMPS:NFB:1,2008-12-01T15:12:00Z,25.0840,-81.0960,1.0,32.355,1111122 
COMPS,ioos:station:USF.COMPS:NFB:1,2008-12-01T15:18:00Z,25.0840,-81.0960,1.0,32.429,1111122 
COMPS,ioos:station:USF.COMPS:NFB:1,2008-12-01T15:24:00Z,25.0840,-81.0960,1.0,32.446,1111122 
COMPS,ioos:station:USF.COMPS:NFB:1,2008-12-01T15:30:00Z,25.0840,-81.0960,1.0,32.479,1111122 
COMPS,ioos:station:USF.COMPS:NFB:1,2008-12-01T15:36:00Z,25.0840,-81.0960,1.0,32.449,1111122 
COMPS,ioos:station:USF.COMPS:NFB:1,2008-12-01T15:42:00Z,25.0840,-81.0960,1.0,32.504,1111122 
COMPS,ioos:station:USF.COMPS:NFB:1,2008-12-01T15:48:00Z,25.0840,-81.0960,1.0,32.489,1111122 
COMPS,ioos:station:USF.COMPS:NFB:1,2008-12-01T15:54:00Z,25.0840,-81.0960,1.0,32.489,1111122 
COMPS,ioos:station:USF.COMPS:NFB:1,2008-12-01T16:00:00Z,25.0840,-81.0960,1.0,32.559,1111122 
COMPS,ioos:station:USF.COMPS:NFB:1,2008-12-01T16:06:00Z,25.0840,-81.0960,1.0,32.559,1111122 
COMPS,ioos:station:USF.COMPS:NFB:1,2008-12-01T16:12:00Z,25.0840,-81.0960,1.0,32.552,1111122 
COMPS,ioos:station:USF.COMPS:NFB:1,2008-12-01T16:18:00Z,25.0840,-81.0960,1.0,32.544,1111122 
COMPS,ioos:station:USF.COMPS:NFB:1,2008-12-01T16:24:00Z,25.0840,-81.0960,1.0,32.537,1111122 
COMPS,ioos:station:USF.COMPS:NFB:1,2008-12-01T16:30:00Z,25.0840,-81.0960,1.0,32.529,1111122 
COMPS,ioos:station:USF.COMPS:NFB:1,2008-12-01T16:36:00Z,25.0840,-81.0960,1.0,32.522,1111122 
COMPS,ioos:station:USF.COMPS:NFB:1,2008-12-01T16:42:00Z,25.0840,-81.0960,1.0,32.515,1111122 
COMPS,ioos:station:USF.COMPS:NFB:1,2008-12-01T16:48:00Z,25.0840,-81.0960,1.0,32.522,1111122 
COMPS,ioos:station:USF.COMPS:NFB:1,2008-12-01T16:54:00Z,25.0840,-81.0960,1.0,32.522,1111122 
COMPS,ioos:station:USF.COMPS:NFB:1,2008-12-01T17:00:00Z,25.0840,-81.0960,1.0,32.522,1111122 
COMPS,ioos:station:USF.COMPS:NFB:1,2008-12-01T17:06:00Z,25.0840,-81.0960,1.0,32.537,1111122 
COMPS,ioos:station:USF.COMPS:NFB:1,2008-12-01T17:12:00Z,25.0840,-81.0960,1.0,32.544,1111122 
COMPS,ioos:station:USF.COMPS:NFB:1,2008-12-01T17:18:00Z,25.0840,-81.0960,1.0,32.482,1111122 
COMPS,ioos:station:USF.COMPS:NFB:1,2008-12-01T17:24:00Z,25.0840,-81.0960,1.0,32.497,1111122 
COMPS,ioos:station:USF.COMPS:NFB:1,2008-12-01T17:30:00Z,25.0840,-81.0960,1.0,32.449,1111122 
COMPS,ioos:station:USF.COMPS:NFB:1,2008-12-01T17:36:00Z,25.0840,-81.0960,1.0,32.409,1111122 
COMPS,ioos:station:USF.COMPS:NFB:1,2008-12-01T17:42:00Z,25.0840,-81.0960,1.0,32.417,1111122 
COMPS,ioos:station:USF.COMPS:NFB:1,2008-12-01T17:48:00Z,25.0840,-81.0960,1.0,32.343,1111122 
COMPS,ioos:station:USF.COMPS:NFB:1,2008-12-01T17:54:00Z,25.0840,-81.0960,1.0,32.277,1111122 
COMPS,ioos:station:USF.COMPS:NFB:1,2008-12-01T18:00:00Z,25.0840,-81.0960,1.0,32.211,1111122 
COMPS,ioos:station:USF.COMPS:NFB:1,2008-12-01T18:06:00Z,25.0840,-81.0960,1.0,32.166,1111122 
COMPS,ioos:station:USF.COMPS:NFB:1,2008-12-01T18:12:00Z,25.0840,-81.0960,1.0,32.077,1111122 
COMPS,ioos:station:USF.COMPS:NFB:1,2008-12-01T18:18:00Z,25.0840,-81.0960,1.0,32.107,1111122 
COMPS,ioos:station:USF.COMPS:NFB:1,2008-12-01T18:24:00Z,25.0840,-81.0960,1.0,32.002,1111122 
COMPS,ioos:station:USF.COMPS:NFB:1,2008-12-01T18:30:00Z,25.0840,-81.0960,1.0,31.961,1111122 
COMPS,ioos:station:USF.COMPS:NFB:1,2008-12-01T18:36:00Z,25.0840,-81.0960,1.0,31.912,1111122 
COMPS,ioos:station:USF.COMPS:NFB:1,2008-12-01T18:42:00Z,25.0840,-81.0960,1.0,31.863,1111122 
COMPS,ioos:station:USF.COMPS:NFB:1,2008-12-01T18:48:00Z,25.0840,-81.0960,1.0,31.87,1111122 
COMPS,ioos:station:USF.COMPS:NFB:1,2008-12-01T18:54:00Z,25.0840,-81.0960,1.0,31.885,1111122 
COMPS,ioos:station:USF.COMPS:NFB:1,2008-12-01T19:00:00Z,25.0840,-81.0960,1.0,31.821,1111122 
COMPS,ioos:station:USF.COMPS:NFB:1,2008-12-01T19:06:00Z,25.0840,-81.0960,1.0,31.779,1111122 
COMPS,ioos:station:USF.COMPS:NFB:1,2008-12-01T19:12:00Z,25.0840,-81.0960,1.0,31.715,1111122 
COMPS,ioos:station:USF.COMPS:NFB:1,2008-12-01T19:18:00Z,25.0840,-81.0960,1.0,31.651,1111122 
COMPS,ioos:station:USF.COMPS:NFB:1,2008-12-01T19:24:00Z,25.0840,-81.0960,1.0,31.681,1111122 
COMPS,ioos:station:USF.COMPS:NFB:1,2008-12-01T19:30:00Z,25.0840,-81.0960,1.0,31.617,1111122 
COMPS,ioos:station:USF.COMPS:NFB:1,2008-12-01T19:36:00Z,25.0840,-81.0960,1.0,31.545,1111122 
COMPS,ioos:station:USF.COMPS:NFB:1,2008-12-01T19:42:00Z,25.0840,-81.0960,1.0,31.538,1111122 
COMPS,ioos:station:USF.COMPS:NFB:1,2008-12-01T19:48:00Z,25.0840,-81.0960,1.0,31.523,1111122 
COMPS,ioos:station:USF.COMPS:NFB:1,2008-12-01T19:54:00Z,25.0840,-81.0960,1.0,31.573,1111122 
COMPS,ioos:station:USF.COMPS:NFB:1,2008-12-01T20:00:00Z,25.0840,-81.0960,1.0,31.622,1111122 
COMPS,ioos:station:USF.COMPS:NFB:1,2008-12-01T20:06:00Z,25.0840,-81.0960,1.0,31.679,1111122 
COMPS,ioos:station:USF.COMPS:NFB:1,2008-12-01T20:12:00Z,25.0840,-81.0960,1.0,31.664,1111122 
COMPS,ioos:station:USF.COMPS:NFB:1,2008-12-01T20:18:00Z,25.0840,-81.0960,1.0,31.728,1111122 
COMPS,ioos:station:USF.COMPS:NFB:1,2008-12-01T20:24:00Z,25.0840,-81.0960,1.0,31.728,1111122 
COMPS,ioos:station:USF.COMPS:NFB:1,2008-12-01T20:30:00Z,25.0840,-81.0960,1.0,31.622,1111122 
COMPS,ioos:station:USF.COMPS:NFB:1,2008-12-01T20:36:00Z,25.0840,-81.0960,1.0,31.437,1111122 
COMPS,ioos:station:USF.COMPS:NFB:1,2008-12-01T20:42:00Z,25.0840,-81.0960,1.0,31.38,1111122 
COMPS,ioos:station:USF.COMPS:NFB:1,2008-12-01T20:48:00Z,25.0840,-81.0960,1.0,31.245,1111122 
COMPS,ioos:station:USF.COMPS:NFB:1,2008-12-01T20:54:00Z,25.0840,-81.0960,1.0,31.181,1111122 
COMPS,ioos:station:USF.COMPS:NFB:1,2008-12-01T21:00:00Z,25.0840,-81.0960,1.0,31.116,1111122 
COMPS,ioos:station:USF.COMPS:NFB:1,2008-12-01T21:06:00Z,25.0840,-81.0960,1.0,31.052,1111122 
COMPS,ioos:station:USF.COMPS:NFB:1,2008-12-01T21:12:00Z,25.0840,-81.0960,1.0,31.059,1111122 
COMPS,ioos:station:USF.COMPS:NFB:1,2008-12-01T21:18:00Z,25.0840,-81.0960,1.0,30.988,1111122 
COMPS,ioos:station:USF.COMPS:NFB:1,2008-12-01T21:24:00Z,25.0840,-81.0960,1.0,31.002,1111122 
COMPS,ioos:station:USF.COMPS:NFB:1,2008-12-01T21:30:00Z,25.0840,-81.0960,1.0,31.009,1111122 
COMPS,ioos:station:USF.COMPS:NFB:1,2008-12-01T21:36:00Z,25.0840,-81.0960,1.0,31.009,1111122 
COMPS,ioos:station:USF.COMPS:NFB:1,2008-12-01T21:42:00Z,25.0840,-81.0960,1.0,31.009,1111122 
COMPS,ioos:station:USF.COMPS:NFB:1,2008-12-01T21:48:00Z,25.0840,-81.0960,1.0,31.096,1111122 
COMPS,ioos:station:USF.COMPS:NFB:1,2008-12-01T21:54:00Z,25.0840,-81.0960,1.0,31.096,1111122 
COMPS,ioos:station:USF.COMPS:NFB:1,2008-12-01T22:00:00Z,25.0840,-81.0960,1.0,31.103,1111122 
COMPS,ioos:station:USF.COMPS:NFB:1,2008-12-01T22:06:00Z,25.0840,-81.0960,1.0,31.103,1111122 
COMPS,ioos:station:USF.COMPS:NFB:1,2008-12-01T22:12:00Z,25.0840,-81.0960,1.0,31.182,1111122 
COMPS,ioos:station:USF.COMPS:NFB:1,2008-12-01T22:18:00Z,25.0840,-81.0960,1.0,31.189,1111122 
COMPS,ioos:station:USF.COMPS:NFB:1,2008-12-01T22:24:00Z,25.0840,-81.0960,1.0,31.189,1111122 
COMPS,ioos:station:USF.COMPS:NFB:1,2008-12-01T22:30:00Z,25.0840,-81.0960,1.0,31.189,1111122 
COMPS,ioos:station:USF.COMPS:NFB:1,2008-12-01T22:36:00Z,25.0840,-81.0960,1.0,31.196,1111122 
COMPS,ioos:station:USF.COMPS:NFB:1,2008-12-01T22:42:00Z,25.0840,-81.0960,1.0,31.204,1111122 
COMPS,ioos:station:USF.COMPS:NFB:1,2008-12-01T22:48:00Z,25.0840,-81.0960,1.0,31.29,1111122 
COMPS,ioos:station:USF.COMPS:NFB:1,2008-12-01T22:54:00Z,25.0840,-81.0960,1.0,31.211,1111122 
COMPS,ioos:station:USF.COMPS:NFB:1,2008-12-01T23:00:00Z,25.0840,-81.0960,1.0,31.211,1111122 
COMPS,ioos:station:USF.COMPS:NFB:1,2008-12-01T23:06:00Z,25.0840,-81.0960,1.0,31.211,1111122 
COMPS,ioos:station:USF.COMPS:NFB:1,2008-12-01T23:12:00Z,25.0840,-81.0960,1.0,31.211,1111122 
COMPS,ioos:station:USF.COMPS:NFB:1,2008-12-01T23:18:00Z,25.0840,-81.0960,1.0,31.218,1111122 
COMPS,ioos:station:USF.COMPS:NFB:1,2008-12-01T23:24:00Z,25.0840,-81.0960,1.0,31.211,1111122 
COMPS,ioos:station:USF.COMPS:NFB:1,2008-12-01T23:30:00Z,25.0840,-81.0960,1.0,31.147,1111122 
COMPS,ioos:station:USF.COMPS:NFB:1,2008-12-01T23:36:00Z,25.0840,-81.0960,1.0,31.139,1111122 
COMPS,ioos:station:USF.COMPS:NFB:1,2008-12-01T23:42:00Z,25.0840,-81.0960,1.0,31.139,1111122 
COMPS,ioos:station:USF.COMPS:NFB:1,2008-12-01T23:48:00Z,25.0840,-81.0960,1.0,31.147,1111122 
COMPS,ioos:station:USF.COMPS:NFB:1,2008-12-01T23:54:00Z,25.0840,-81.0960,1.0,31.06,1111122 
COMPS,ioos:station:USF.COMPS:NFB:1,2008-12-02T00:00:00Z,25.0840,-81.0960,1.0,31.068,1111122 
COMPS,ioos:station:USF.COMPS:NFB:1,2008-12-02T00:06:00Z,25.0840,-81.0960,1.0,31.075,1111122 
COMPS,ioos:station:USF.COMPS:NFB:1,2008-12-02T00:12:00Z,25.0840,-81.0960,1.0,30.989,1111122 
COMPS,ioos:station:USF.COMPS:NFB:1,2008-12-02T00:18:00Z,25.0840,-81.0960,1.0,30.989,1111122 
COMPS,ioos:station:USF.COMPS:NFB:1,2008-12-02T00:24:00Z,25.0840,-81.0960,1.0,30.996,1111122 
COMPS,ioos:station:USF.COMPS:NFB:1,2008-12-02T00:30:00Z,25.0840,-81.0960,1.0,30.989,1111122 
COMPS,ioos:station:USF.COMPS:NFB:1,2008-12-02T00:36:00Z,25.0840,-81.0960,1.0,30.917,1111122 
COMPS,ioos:station:USF.COMPS:NFB:1,2008-12-02T00:42:00Z,25.0840,-81.0960,1.0,30.91,1111122 
COMPS,ioos:station:USF.COMPS:NFB:1,2008-12-02T00:48:00Z,25.0840,-81.0960,1.0,30.831,1111122 
COMPS,ioos:station:USF.COMPS:NFB:1,2008-12-02T00:54:00Z,25.0840,-81.0960,1.0,30.831,1111122 
COMPS,ioos:station:USF.COMPS:NFB:1,2008-12-02T01:00:00Z,25.0840,-81.0960,1.0,30.831,1111122 
COMPS,ioos:station:USF.COMPS:NFB:1,2008-12-02T01:06:00Z,25.0840,-81.0960,1.0,30.831,1111122 
COMPS,ioos:station:USF.COMPS:NFB:1,2008-12-02T01:12:00Z,25.0840,-81.0960,1.0,30.831,1111122 
COMPS,ioos:station:USF.COMPS:NFB:1,2008-12-02T01:18:00Z,25.0840,-81.0960,1.0,30.838,1111122 
COMPS,ioos:station:USF.COMPS:NFB:1,2008-12-02T01:24:00Z,25.0840,-81.0960,1.0,30.831,1111122 
COMPS,ioos:station:USF.COMPS:NFB:1,2008-12-02T01:30:00Z,25.0840,-81.0960,1.0,30.91,1111122 
COMPS,ioos:station:USF.COMPS:NFB:1,2008-12-02T01:36:00Z,25.0840,-81.0960,1.0,30.91,1111122 
COMPS,ioos:station:USF.COMPS:NFB:1,2008-12-02T01:42:00Z,25.0840,-81.0960,1.0,30.981,1111122 
COMPS,ioos:station:USF.COMPS:NFB:1,2008-12-02T01:48:00Z,25.0840,-81.0960,1.0,31.053,1111122 
COMPS,ioos:station:USF.COMPS:NFB:1,2008-12-02T01:54:00Z,25.0840,-81.0960,1.0,31.046,1111122 
COMPS,ioos:station:USF.COMPS:NFB:1,2008-12-02T02:00:00Z,25.0840,-81.0960,1.0,31.125,1111122 
COMPS,ioos:station:USF.COMPS:NFB:1,2008-12-02T02:06:00Z,25.0840,-81.0960,1.0,31.196,1111122 
COMPS,ioos:station:USF.COMPS:NFB:1,2008-12-02T02:12:00Z,25.0840,-81.0960,1.0,31.275,1111122 
COMPS,ioos:station:USF.COMPS:NFB:1,2008-12-02T02:18:00Z,25.0840,-81.0960,1.0,31.347,1111122 
COMPS,ioos:station:USF.COMPS:NFB:1,2008-12-02T02:24:00Z,25.0840,-81.0960,1.0,31.34,1111122 
COMPS,ioos:station:USF.COMPS:NFB:1,2008-12-02T02:30:00Z,25.0840,-81.0960,1.0,31.412,1111122 
COMPS,ioos:station:USF.COMPS:NFB:1,2008-12-02T02:36:00Z,25.0840,-81.0960,1.0,31.483,1111122 
COMPS,ioos:station:USF.COMPS:NFB:1,2008-12-02T02:42:00Z,25.0840,-81.0960,1.0,31.562,1111122 
COMPS,ioos:station:USF.COMPS:NFB:1,2008-12-02T02:48:00Z,25.0840,-81.0960,1.0,31.548,1111122 
COMPS,ioos:station:USF.COMPS:NFB:1,2008-12-02T02:54:00Z,25.0840,-81.0960,1.0,31.612,1111122 
COMPS,ioos:station:USF.COMPS:NFB:1,2008-12-02T03:00:00Z,25.0840,-81.0960,1.0,31.604,1111122 
COMPS,ioos:station:USF.COMPS:NFB:1,2008-12-02T03:06:00Z,25.0840,-81.0960,1.0,31.74,1111122 
COMPS,ioos:station:USF.COMPS:NFB:1,2008-12-02T03:12:00Z,25.0840,-81.0960,1.0,31.797,1111122 
COMPS,ioos:station:USF.COMPS:NFB:1,2008-12-02T03:18:00Z,25.0840,-81.0960,1.0,31.79,1111122 
COMPS,ioos:station:USF.COMPS:NFB:1,2008-12-02T03:24:00Z,25.0840,-81.0960,1.0,31.79,1111122 
COMPS,ioos:station:USF.COMPS:NFB:1,2008-12-02T03:30:00Z,25.0840,-81.0960,1.0,31.79,1111122 
COMPS,ioos:station:USF.COMPS:NFB:1,2008-12-02T03:36:00Z,25.0840,-81.0960,1.0,31.725,1111122 